When you browse on this site, cookies collect data to enhance your experience and personalize the content and advertising you see.
Visit our Privacy Policy to learn more. By continuing to use the site, you agree to this use of cookies and data.
  • In Austria
  • List of Countries
  • For 7 days
  • Water Temperature
  • Weather Map
  • News
  • Weather Widgets
  • user-avatar
    Login

    Hourly Weather Tamarac

    Today, 20 August, Tuesday

    Time Temperature Precipitation Wind Pressure Humidity
    00:00 +31°C° 0.1 mm 3 mps 762 mmHg 64%
    01:00 +30°C° 0 mm 2 mps 762 mmHg 68%
    02:00 +30°C° 0.3 mm 3 mps 762 mmHg 68%
    03:00 +30°C° 0.3 mm 3 mps 762 mmHg 69%
    04:00 +30°C° 0.3 mm 3 mps 762 mmHg 69%
    05:00 +30°C° 0.4 mm 3 mps 762 mmHg 69%
    06:00 +30°C° 0.4 mm 4 mps 762 mmHg 68%
    07:00 +32°C° 0.4 mm 4 mps 762 mmHg 68%
    08:00 +33°C° 0.1 mm 5 mps 763 mmHg 63%
    09:00 +34°C° 0.1 mm 5 mps 763 mmHg 59%
    10:00 +35°C° 0.1 mm 6 mps 763 mmHg 55%
    11:00 +35°C° 0 mm 6 mps 763 mmHg 53%
    12:00 +35°C° 0 mm 6 mps 763 mmHg 51%
    13:00 +36°C° 0 mm 6 mps 762 mmHg 49%
    14:00 +36°C° 0.2 mm 6 mps 762 mmHg 49%
    15:00 +36°C° 0.2 mm 5 mps 762 mmHg 49%
    16:00 +36°C° 0.2 mm 5 mps 762 mmHg 49%
    17:00 +35°C° 0.3 mm 5 mps 762 mmHg 52%
    18:00 +34°C° 0.3 mm 5 mps 762 mmHg 55%
    19:00 +33°C° 0.3 mm 5 mps 762 mmHg 58%
    20:00 +33°C° 0 mm 5 mps 762 mmHg 61%
    21:00 +33°C° 0 mm 4 mps 763 mmHg 63%
    22:00 +32°C° 0 mm 4 mps 763 mmHg 66%
    23:00 +32°C° 0 mm 4 mps 763 mmHg 67%

    Tomorrow, 21 August, Wednesday

    Time Temperature Precipitation Wind Pressure Humidity
    00:00 +32°C° 0 mm 4 mps 763 mmHg 69%
    01:00 +32°C° 0 mm 4 mps 762 mmHg 70%
    02:00 +30°C° 0 mm 4 mps 762 mmHg 71%
    03:00 +30°C° 0 mm 4 mps 762 mmHg 72%
    04:00 +30°C° 0 mm 4 mps 762 mmHg 73%
    05:00 +30°C° 0 mm 4 mps 762 mmHg 72%
    06:00 +30°C° 0 mm 4 mps 762 mmHg 72%
    07:00 +32°C° 0 mm 4 mps 763 mmHg 71%
    08:00 +33°C° 0.1 mm 4 mps 763 mmHg 65%
    09:00 +34°C° 0.1 mm 4 mps 763 mmHg 60%
    10:00 +35°C° 0.1 mm 4 mps 763 mmHg 55%
    11:00 +35°C° 0 mm 4 mps 763 mmHg 52%
    12:00 +36°C° 0 mm 4 mps 763 mmHg 49%
    13:00 +36°C° 0 mm 5 mps 763 mmHg 46%
    14:00 +36°C° 0 mm 4 mps 763 mmHg 45%
    15:00 +36°C° 0 mm 4 mps 762 mmHg 45%
    16:00 +36°C° 0 mm 4 mps 762 mmHg 45%
    17:00 +35°C° 0 mm 4 mps 762 mmHg 48%
    18:00 +34°C° 0 mm 4 mps 762 mmHg 52%
    19:00 +33°C° 0 mm 4 mps 762 mmHg 55%
    20:00 +33°C° 0 mm 4 mps 762 mmHg 57%
    21:00 +33°C° 0 mm 4 mps 763 mmHg 59%
    22:00 +32°C° 0 mm 4 mps 763 mmHg 60%
    23:00 +32°C° 0 mm 4 mps 763 mmHg 62%

    Day after tomorrow, 22 August, Thursday

    Time Temperature Precipitation Wind Pressure Humidity
    00:00 +32°C° 0 mm 4 mps 762 mmHg 63%
    01:00 +32°C° 0 mm 4 mps 762 mmHg 65%
    02:00 +31°C° 0 mm 3 mps 762 mmHg 66%
    03:00 +30°C° 0 mm 3 mps 761 mmHg 67%
    04:00 +30°C° 0 mm 3 mps 761 mmHg 69%
    05:00 +30°C° 0 mm 3 mps 761 mmHg 69%
    06:00 +30°C° 0 mm 3 mps 762 mmHg 68%
    07:00 +32°C° 0 mm 4 mps 762 mmHg 68%
    08:00 +33°C° 0 mm 4 mps 762 mmHg 63%
    09:00 +33°C° 0 mm 4 mps 763 mmHg 58%
    10:00 +34°C° 0 mm 5 mps 763 mmHg 54%
    11:00 +35°C° 0 mm 5 mps 762 mmHg 52%
    12:00 +35°C° 0 mm 5 mps 762 mmHg 49%
    13:00 +36°C° 0 mm 5 mps 762 mmHg 47%
    14:00 +36°C° 0 mm 5 mps 761 mmHg 48%
    15:00 +36°C° 0 mm 5 mps 761 mmHg 48%
    16:00 +35°C° 0 mm 5 mps 761 mmHg 49%
    17:00 +34°C° 0 mm 5 mps 761 mmHg 52%
    18:00 +34°C° 0 mm 5 mps 761 mmHg 56%
    19:00 +33°C° 0 mm 5 mps 761 mmHg 60%
    20:00 +33°C° 0 mm 4 mps 761 mmHg 61%
    21:00 +32°C° 0 mm 4 mps 761 mmHg 63%
    22:00 +32°C° 0 mm 4 mps 762 mmHg 64%
    23:00 +31°C° 0 mm 3 mps 761 mmHg 65%

    23 August, Friday

    Time Temperature Precipitation Wind Pressure Humidity
    00:00 +31°C° 0 mm 3 mps 761 mmHg 66%
    01:00 +31°C° 0 mm 3 mps 761 mmHg 68%
    02:00 +30°C° 0.1 mm 3 mps 760 mmHg 68%
    03:00 +30°C° 0.1 mm 2 mps 760 mmHg 69%
    04:00 +30°C° 0.1 mm 2 mps 760 mmHg 69%
    05:00 +30°C° 0.1 mm 2 mps 760 mmHg 69%
    06:00 +30°C° 0.1 mm 2 mps 761 mmHg 68%
    07:00 +30°C° 0.1 mm 3 mps 761 mmHg 67%
    08:00 +33°C° 0.1 mm 3 mps 761 mmHg 62%
    09:00 +34°C° 0.1 mm 4 mps 761 mmHg 57%
    10:00 +35°C° 0.1 mm 4 mps 761 mmHg 52%
    11:00 +35°C° 0 mm 4 mps 761 mmHg 50%
    12:00 +36°C° 0 mm 4 mps 761 mmHg 49%
    13:00 +36°C° 0 mm 4 mps 761 mmHg 47%
    14:00 +36°C° 0 mm 4 mps 760 mmHg 47%
    15:00 +36°C° 0 mm 4 mps 760 mmHg 47%
    16:00 +36°C° 0 mm 4 mps 760 mmHg 47%
    17:00 +35°C° 0 mm 4 mps 760 mmHg 51%
    18:00 +34°C° 0 mm 4 mps 760 mmHg 54%
    19:00 +33°C° 0 mm 4 mps 760 mmHg 57%
    20:00 +33°C° 0.1 mm 4 mps 760 mmHg 60%
    21:00 +33°C° 0.1 mm 4 mps 761 mmHg 63%
    22:00 +32°C° 0.1 mm 4 mps 761 mmHg 66%
    23:00 +31°C° 0.4 mm 3 mps 761 mmHg 66%

    24 August, Saturday

    Time Temperature Precipitation Wind Pressure Humidity
    00:00 +31°C° 0.4 mm 3 mps 760 mmHg 66%
    01:00 +31°C° 0.4 mm 3 mps 760 mmHg 66%
    02:00 +31°C° 0.3 mm 3 mps 760 mmHg 66%
    03:00 +31°C° 0.3 mm 3 mps 760 mmHg 67%
    04:00 +31°C° 0.3 mm 3 mps 760 mmHg 67%
    05:00 +31°C° 0 mm 3 mps 760 mmHg 68%
    06:00 +31°C° 0 mm 3 mps 760 mmHg 68%
    07:00 +31°C° 0 mm 3 mps 761 mmHg 69%
    08:00 +33°C° 0 mm 3 mps 761 mmHg 64%
    09:00 +34°C° 0 mm 3 mps 761 mmHg 59%
    10:00 +35°C° 0 mm 3 mps 761 mmHg 54%
    11:00 +35°C° 0 mm 3 mps 761 mmHg 50%
    12:00 +36°C° 0 mm 3 mps 761 mmHg 45%
    13:00 +37°C° 0 mm 4 mps 761 mmHg 40%
    14:00 +37°C° 0 mm 4 mps 760 mmHg 41%
    15:00 +37°C° 0 mm 4 mps 760 mmHg 42%
    16:00 +37°C° 0 mm 4 mps 760 mmHg 43%
    17:00 +36°C° 0 mm 4 mps 760 mmHg 48%
    18:00 +34°C° 0 mm 4 mps 760 mmHg 52%
    19:00 +33°C° 0 mm 4 mps 760 mmHg 57%
    20:00 +33°C° 0 mm 4 mps 761 mmHg 60%
    21:00 +33°C° 0 mm 4 mps 761 mmHg 62%
    22:00 +31°C° 0 mm 3 mps 761 mmHg 65%
    23:00 +31°C° 0 mm 3 mps 761 mmHg 67%

    25 August, Sunday

    Time Temperature Precipitation Wind Pressure Humidity
    00:00 +31°C° 0 mm 3 mps 761 mmHg 69%
    01:00 +31°C° 0 mm 3 mps 760 mmHg 70%
    02:00 +31°C° 0 mm 3 mps 760 mmHg 71%
    03:00 +31°C° 0 mm 3 mps 760 mmHg 72%
    04:00 +30°C° 0 mm 2 mps 760 mmHg 73%
    05:00 +31°C° 0.1 mm 2 mps 760 mmHg 71%
    06:00 +31°C° 0.1 mm 2 mps 760 mmHg 70%
    07:00 +31°C° 0.1 mm 2 mps 761 mmHg 69%
    08:00 +32°C° 0.2 mm 2 mps 761 mmHg 64%
    09:00 +34°C° 0.2 mm 2 mps 761 mmHg 59%
    10:00 +35°C° 0.2 mm 3 mps 761 mmHg 55%
    11:00 +36°C° 0.1 mm 3 mps 761 mmHg 52%
    12:00 +36°C° 0.1 mm 3 mps 761 mmHg 50%
    13:00 +37°C° 0.1 mm 4 mps 761 mmHg 48%
    14:00 +36°C° 0.2 mm 4 mps 760 mmHg 50%
    15:00 +36°C° 0.2 mm 4 mps 760 mmHg 52%
    16:00 +36°C° 0.2 mm 3 mps 760 mmHg 54%
    17:00 +35°C° 0.1 mm 3 mps 760 mmHg 57%
    18:00 +34°C° 0.1 mm 3 mps 760 mmHg 60%
    19:00 +33°C° 0.1 mm 3 mps 760 mmHg 63%
    20:00 +33°C° 0 mm 3 mps 760 mmHg 65%
    21:00 +33°C° 0 mm 3 mps 761 mmHg 66%
    22:00 +33°C° 0 mm 3 mps 761 mmHg 68%
    23:00 +31°C° 0 mm 3 mps 761 mmHg 68%
    Show more